This is the latest recevied weather packets stored in our database for station/object AB4KN. If no packets are shown the sender has not sent any weather packets the latest 10 day(s).
| Time | Temp. | Humidity | Pressure | Rain* | Wind** | Luminosity | Snow |
|---|---|---|---|---|---|---|---|
| 1778025755 | 23.89° C | 41% | 1018.9 hPa | 0 mm | - | 1 W/m² | - |
| 1778025452 | 23.89° C | 40% | 1018.8 hPa | 0 mm | - | 3 W/m² | - |
| 1778025150 | 23.89° C | 39% | 1018.8 hPa | 0 mm | - | 3 W/m² | - |
| 1778024847 | 24.44° C | 39% | 1018.7 hPa | 0 mm | - | 6 W/m² | - |
| 1778024544 | 24.44° C | 38% | 1018.5 hPa | 0 mm | - | 6 W/m² | - |
| 1778024240 | 24.44° C | 39% | 1018.7 hPa | 0 mm | - | 6 W/m² | - |
| 1778023939 | 25° C | 39% | 1018.6 hPa | 0 mm | - | 6 W/m² | - |
| 1778023635 | 25° C | 38% | 1018.6 hPa | 0 mm | - | 12 W/m² | - |
| 1778023333 | 25° C | 38% | 1018.7 hPa | 0 mm | - | 15 W/m² | - |
| 1778023029 | 25° C | 38% | 1018.6 hPa | 0 mm | - | 12 W/m² | - |
| 1778022729 | 25° C | 37% | 1018.8 hPa | 0 mm | - | 9 W/m² | - |
| 1778022426 | 25° C | 37% | 1018.5 hPa | 0 mm | - | 10 W/m² | - |
| 1778022123 | 25° C | 37% | 1018.5 hPa | 0 mm | - | 11 W/m² | - |
| 1778021819 | 25° C | 36% | 1018.5 hPa | 0 mm | - | 11 W/m² | - |
| 1778021516 | 25.56° C | 37% | 1018.5 hPa | 0 mm | - | 12 W/m² | - |
| 1778021211 | 25.56° C | 36% | 1018.5 hPa | 0 mm | - | 12 W/m² | - |
| 1778020909 | 25.56° C | 35% | 1018.4 hPa | 0 mm | - | 13 W/m² | - |
| 1778020606 | 25.56° C | 34% | 1018.6 hPa | 0 mm | - | 13 W/m² | - |
| 1778020302 | 25.56° C | 33% | 1018.6 hPa | 0 mm | - | 13 W/m² | - |
| 1778019993 | 25.56° C | 33% | 1018.3 hPa | 0 mm | - | 14 W/m² | - |
| 1778019689 | 25.56° C | 33% | 1018.2 hPa | 0 mm | - | 15 W/m² | - |
| 1778019386 | 26.11° C | 32% | 1018.2 hPa | 0 mm | - | 15 W/m² | - |
| 1778019083 | 26.11° C | 33% | 1018.4 hPa | 0 mm | - | 16 W/m² | - |
| 1778018781 | 26.11° C | 32% | 1018.1 hPa | 0 mm | - | 15 W/m² | - |
| 1778018478 | 26.11° C | 34% | 1018.3 hPa | 0 mm | - | 17 W/m² | - |
* Rain latest hour (hover to see other rain measurements)
** Current wind speed in m/s (hover to see current wind gust speed)